User: anonymous   Login
Location: Unspecified
(0.0000°N, 0.0000°E)
Time: 13:51:21
(UTC+02:00)
Language:

Transit 2A - Orbit

View from above orbital plane
View from above orbital plane
View from above satellite
View from above satellite

Ground track
Ground track

The orbit data is extracted from the following two-line orbital elements,

1    45U 60007A   17232.92786330 -.00000032 +00000-0 +18947-4 0  9994
2    45 066.6929 219.0381 0257728 344.7969 014.5484 14.33560327918015
Epoch (UTC): 20 August 2017 22:16:07
Eccentricity: 0.0257728
inclination: 66.6929°
perigee height: 595 km
apogee height: 964 km
right ascension of ascending node: 219.0381°
argument of perigee: 344.7969°
revolutions per day: 14.33560327
mean anomaly at epoch: 14.5484°
orbit number at epoch: 91801

The dashed part of the orbit path shows where the satellite is in the earth's shadow,  

DLR